Вернуться в каталог

THORAD AGENA D DEB

АктивенPO
NORAD 4913·DEBRIS·🇺🇸 United States

Запущен Apr 8, 1970 с Vandenberg Space Force Base

Loading…

Ближайшие Пролёты (ближайшие 24 часа)

TLE

СвежийSource: Space-Track

Эпоха: Sep 14, 2026, 06:12 UTC

1 04913U 70025FK  26257.25875516  .00000133  00000-0  11233-3 0  9992
2 04913  99.8117 359.0121 0137206 319.9556  39.1553 14.01743130866462

Отслеживайте THORAD AGENA D DEB в реальном времени с AllMySat

Download on the App Store